[[{"header":{"parameterUnit":"m.s-1","parameterCategory":1,"la1":30.2991,"la2":30.254,"lo1":-89.0895,"lo2":-89.0444,"dy":0.0017,"dx":0.0017,"nx":28,"ny":28,"refTime":"2025-08-21T21:00:00:Z","depth":0,"parameterNumber":2,"parameterNumberName":"U-component_of_WINDS"},"data":[0,0,0,0,0,0,0,0,0,0,0,0,0,0,0,0,0,0,0,0,0,0,0,0,0,0,0,0,0,0,0,0,0,0,0,0,0,0,0,0,0,0,0,0,0,0,0,0,0,0,0,0,0,0,0,0,0,0,0.684,0.6841,0,0.6856,0.6856,0.6856,0.687,0.687,0.687,0.687,0.6884,0.6885,0.6885,0,0,0,0,0,0,0,0,0,0,0,0,0,0.6821,0.6822,0.684,0.6841,0.6841,0.6856,0.6856,0.6856,0.6869,0.687,0.687,0.687,0.6884,0.6885,0.6885,0,0,0,0,0,0,0,0,0,0,0,0,0,0.6832,0.6822,0.684,0.6849,0.685,0.6856,0.6856,0.6856,0.6869,0.687,0.687,0.687,0.6884,0.6885,0.6885,0.6882,0,0,0.6886,0.6886,0,0,0,0,0,0,0,0,0.6832,0.6833,0.6848,0.6849,0.685,0.6861,0.6854,0.6865,0.6869,0.6862,0.687,0.687,0.6876,0.6877,0.688,0.6883,0.6884,0.6886,0.6886,0.6886,0.6887,0,0,0,0,0,0,0,0.6831,0.6832,0.6846,0.6848,0.6849,0.6852,0.6854,0.6856,0.6868,0.6863,0.6864,0.6865,0.6877,0.6879,0.688,0.6884,0.6886,0.6886,0.6887,0.6887,0.6885,0.6885,0,0,0,0,0,0,0.6829,0.6832,0.6846,0.6847,0.6841,0.6852,0.6854,0.6857,0.6868,0.687,0.6865,0.6866,0.6879,0.688,0.6881,0.6878,0.6886,0.6887,0.6887,0.6886,0.6885,0.6885,0,0,0,0,0,0,0.6829,0.683,0.6845,0.684,0.6842,0.6852,0.6855,0.6857,0.686,0.687,0.6872,0.6866,0.6879,0.688,0.6882,0.6879,0.6887,0.6887,0.6886,0.6886,0.6885,0.6873,0,0,0,0,0,0,0.6828,0.683,0.6829,0.6839,0.6842,0.6847,0.6855,0.6857,0.686,0.6862,0.6871,0.6872,0.6879,0.6881,0.6882,0.6879,0.6888,0.6886,0.6886,0.6885,0.6874,0.6872,0.6871,0,0,0,0,0,0.6827,0.6825,0.6829,0.6831,0.6842,0.6846,0.6848,0.6856,0.686,0.6859,0.6866,0.6872,0.6879,0.6881,0.6882,0.688,0.6887,0.6886,0.6885,0.6874,0.6873,0.6871,0,0,0,0,0,0,0.6814,0.6827,0.6831,0.6833,0.6838,0.6849,0.6848,0.6854,0.6858,0.6859,0.6869,0.6871,0.6871,0.6876,0.6878,0.6878,0.6884,0.6883,0.6875,0.6873,0.6872,0.6871,0.6888,0,0,0,0,0,0.6811,0.6815,0.6825,0.6825,0.6828,0.6837,0.684,0.6846,0.6852,0.6854,0.6861,0.6866,0.687,0.6872,0.6875,0.6874,0.6876,0.6873,0.6872,0.6871,0.687,0.687,0.6868,0.6883,0.6883,0.6883,0,0,0.6806,0.6813,0.6814,0.6823,0.6828,0.6831,0.6839,0.6842,0.6844,0.6855,0.6857,0.6861,0.6868,0.6868,0.6869,0.6872,0.6867,0.687,0.6869,0.6869,0.6869,0.6868,0.6866,0.6883,0.6883,0.6883,0,0,0.6797,0.6803,0.6804,0.6808,0.6816,0.6823,0.6823,0.6832,0.6836,0.6838,0.6846,0.6848,0.6854,0.6858,0.6861,0.6853,0.6859,0.6854,0.6847,0.6847,0.6846,0.6845,0.6842,0.6841,0.6854,0.6854,0.6854,0,0.6789,0.6794,0.6803,0.6805,0.6808,0.6818,0.6819,0.6823,0.6831,0.6833,0.6837,0.6844,0.6849,0.685,0.6849,0.6851,0.6851,0.6853,0.6845,0.6844,0.6843,0.6841,0.684,0.6853,0.6853,0.6853,0.6853,0,0.6783,0.6787,0.6786,0.6794,0.6797,0.6798,0.6807,0.6809,0.6815,0.6821,0.6822,0.6829,0.6834,0.6835,0.684,0.6837,0.6838,0.6843,0.685,0.6841,0.6839,0.6838,0.6852,0.6852,0.6853,0.6853,0,0,0.6767,0.678,0.678,0.6784,0.6793,0.6795,0.6796,0.6802,0.6803,0.6808,0.6809,0.6814,0.6818,0.6822,0.6827,0.6827,0.682,0.6832,0.6832,0.683,0.6817,0.6813,0.6812,0.6824,0.6824,0.6824,0.6816,0,0.676,0.6763,0.6771,0.6772,0.6775,0.6784,0.6785,0.6791,0.6796,0.6799,0.6804,0.6807,0.6813,0.6815,0.6815,0.6821,0.6818,0.6822,0.6825,0.6825,0.6823,0.6811,0.6807,0.6799,0.6815,0.6815,0.6815,0,0.6752,0.6757,0.6758,0.6767,0.6768,0.6769,0.6774,0.6777,0.6783,0.6787,0.679,0.6797,0.6798,0.6804,0.6806,0.6808,0.681,0.6813,0.6813,0.6814,0.682,0.6811,0.6797,0.6796,0.6814,0.6814,0.6814,0,0.674,0.6747,0.6748,0.6751,0.6761,0.6762,0.6766,0.6772,0.6775,0.6779,0.6781,0.6785,0.6788,0.6791,0.6798,0.6801,0.6799,0.6805,0.6802,0.6802,0.6801,0.6801,0.6787,0.6802,0.6802,0.6802,0.6802,0,0.6731,0.6731,0.6743,0.6744,0.6744,0.6753,0.6753,0.6758,0.6764,0.6766,0.6774,0.6775,0.6784,0.6787,0.6792,0.6793,0.6794,0.6797,0.6798,0.6796,0.6796,0.6798,0.6798,0.6802,0.6802,0.6802,0.6802,0,0.6718,0.6726,0.6728,0.6737,0.674,0.6739,0.6747,0.6748,0.6754,0.6756,0.6757,0.6765,0.6769,0.6776,0.6781,0.6785,0.6784,0.6787,0.6782,0.6783,0.6779,0.6779,0.6766,0.6765,0.678,0.678,0.678,0,0.6712,0.6712,0.6721,0.6723,0.6727,0.673,0.6733,0.6741,0.6744,0.675,0.675,0.6754,0.6758,0.6762,0.6769,0.6772,0.6775,0.677,0.6776,0.6774,0.6775,0.6775,0.6775,0.6769,0.6769,0.6769,0.6769,0,0.67,0.6704,0.6707,0.6712,0.6715,0.6719,0.6724,0.6725,0.6735,0.6737,0.674,0.6743,0.6748,0.6751,0.6756,0.676,0.6766,0.6767,0.6766,0.6764,0.6762,0.6763,0.6779,0.6767,0.6767,0.6767,0.6768,0.6768,0.669,0.6691,0.6698,0.6701,0.6706,0.671,0.6711,0.6717,0.672,0.6725,0.6729,0.6732,0.6738,0.6745,0.6748,0.675,0.6753,0.6753,0.6752,0.6752,0.6751,0.6761,0.6751,0.6751,0.6751,0.6751,0.6751,0,0.6679,0.6683,0.6687,0.6693,0.6696,0.6701,0.6706,0.6708,0.6711,0.6716,0.6719,0.6722,0.6726,0.6733,0.6736,0.6737,0.674,0.6738,0.6738,0.6738,0.6748,0.6748,0.6735,0.6735,0.6735,0.6735,0.6735,0.6735,0.6673,0.6675,0.6679,0.6683,0.6687,0.669,0.6693,0.6696,0.67,0.6704,0.6707,0.6712,0.6717,0.6721,0.6724,0.6726,0.6727,0.6724,0.6727,0.6736,0.6738,0.6739,0.6739,0.6725,0.6725,0.6717,0.6717,0.6717]},{"header":{"parameterUnit":"m.s-1","parameterCategory":1,"la1":30.2991,"la2":30.254,"lo1":-89.0895,"lo2":-89.0444,"dy":0.0017,"dx":0.0017,"nx":28,"ny":28,"refTime":"2025-08-21T21:00:00:Z","depth":0,"parameterNumber":3,"parameterNumberName":"V-component_of_WINDS"},"data":[0,0,0,0,0,0,0,0,0,0,0,0,0,0,0,0,0,0,0,0,0,0,0,0,0,0,0,0,0,0,0,0,0,0,0,0,0,0,0,0,0,0,0,0,0,0,0,0,0,0,0,0,0,0,0,0,0,0,0.2463,0.2463,0,0.2498,0.2498,0.2499,0.25,0.2499,0.2499,0.2498,0.2534,0.2535,0.2537,0,0,0,0,0,0,0,0,0,0,0,0,0,0.2394,0.2395,0.2463,0.2463,0.2464,0.2498,0.2498,0.2499,0.25,0.2499,0.2499,0.2498,0.2533,0.2535,0.2537,0,0,0,0,0,0,0,0,0,0,0,0,0,0.2426,0.2396,0.2463,0.2468,0.2469,0.2498,0.2498,0.2499,0.25,0.2499,0.2498,0.2498,0.2533,0.2535,0.2537,0.2562,0,0,0.2543,0.2544,0,0,0,0,0,0,0,0,0.2424,0.2429,0.2467,0.2468,0.2469,0.2494,0.2487,0.252,0.25,0.2488,0.2498,0.2498,0.2521,0.2524,0.2532,0.2564,0.2566,0.2543,0.2545,0.2545,0.2546,0,0,0,0,0,0,0,0.2422,0.2427,0.2477,0.2467,0.2469,0.2468,0.2472,0.2494,0.2508,0.2489,0.2489,0.2493,0.2521,0.253,0.2533,0.2566,0.2543,0.2545,0.2546,0.2547,0.2619,0.262,0,0,0,0,0,0,0.2419,0.2425,0.2475,0.2478,0.2444,0.247,0.2474,0.2486,0.2508,0.251,0.2494,0.2493,0.2527,0.2531,0.2534,0.2565,0.2545,0.2547,0.2548,0.2618,0.2619,0.262,0,0,0,0,0,0,0.2417,0.2423,0.2474,0.2451,0.2458,0.2472,0.2485,0.2487,0.2496,0.2511,0.2514,0.25,0.2527,0.2531,0.2555,0.2566,0.2548,0.255,0.2618,0.2619,0.262,0.2626,0,0,0,0,0,0,0.2415,0.2423,0.2433,0.2452,0.2459,0.2495,0.2486,0.2489,0.25,0.2499,0.2518,0.252,0.2526,0.2552,0.2557,0.2568,0.2552,0.2617,0.2618,0.2619,0.2625,0.2627,0.2629,0,0,0,0,0,0.2413,0.2434,0.2434,0.244,0.2473,0.2496,0.25,0.2507,0.2501,0.2511,0.252,0.252,0.2564,0.2554,0.256,0.2572,0.2616,0.2618,0.2619,0.2624,0.2627,0.2629,0,0,0,0,0,0,0.2417,0.2437,0.2437,0.2465,0.2478,0.2496,0.2509,0.251,0.2526,0.2525,0.2532,0.2536,0.2559,0.2568,0.2558,0.2597,0.2589,0.2592,0.2591,0.2594,0.2596,0.2593,0.2553,0,0,0,0,0,0.2421,0.2439,0.2455,0.2478,0.2484,0.2495,0.2506,0.251,0.2524,0.253,0.2542,0.2555,0.2572,0.2583,0.26,0.2626,0.2629,0.2637,0.2639,0.264,0.2643,0.2656,0.2659,0.2625,0.2625,0.2625,0,0,0.243,0.2443,0.2454,0.2479,0.249,0.2507,0.2501,0.252,0.2532,0.2533,0.2556,0.2565,0.258,0.2605,0.2617,0.2613,0.2653,0.2642,0.2644,0.2645,0.2658,0.2661,0.2664,0.2626,0.2626,0.2626,0,0,0.2455,0.2467,0.2486,0.2497,0.2514,0.2521,0.2525,0.2542,0.2548,0.2571,0.2572,0.2586,0.2616,0.2626,0.2636,0.2662,0.2662,0.2667,0.2678,0.2691,0.2694,0.2696,0.2705,0.2708,0.2669,0.2669,0.2669,0,0.2464,0.249,0.2496,0.2515,0.2526,0.2526,0.2546,0.2556,0.2577,0.2584,0.258,0.2615,0.2626,0.2653,0.2659,0.2667,0.2671,0.2666,0.2693,0.2695,0.2698,0.2706,0.2709,0.267,0.267,0.267,0.267,0,0.25,0.2518,0.2532,0.2552,0.2564,0.2583,0.2591,0.2602,0.2604,0.2611,0.2633,0.2646,0.2664,0.2671,0.2674,0.2697,0.2695,0.2691,0.2684,0.2701,0.2709,0.2713,0.2671,0.2671,0.267,0.267,0,0,0.253,0.2552,0.2557,0.2565,0.2583,0.2596,0.2614,0.2632,0.2641,0.2655,0.267,0.2694,0.269,0.2701,0.2704,0.2715,0.2734,0.271,0.2711,0.2714,0.276,0.2762,0.2766,0.2734,0.2734,0.2735,0.2759,0,0.2557,0.2589,0.2594,0.2623,0.2639,0.2639,0.2654,0.2666,0.2673,0.2687,0.2694,0.271,0.2705,0.2711,0.2722,0.273,0.2743,0.2728,0.2747,0.2748,0.2743,0.277,0.2774,0.2795,0.2762,0.2762,0.2763,0,0.2593,0.2607,0.2637,0.265,0.2657,0.2672,0.2687,0.2701,0.2713,0.2717,0.2728,0.2729,0.2747,0.2738,0.2762,0.2751,0.2759,0.2764,0.2765,0.2767,0.2757,0.2773,0.2803,0.2806,0.2768,0.2767,0.2767,0,0.2611,0.2638,0.2659,0.2666,0.2682,0.2692,0.2699,0.2711,0.2721,0.2734,0.274,0.2756,0.2764,0.2775,0.2781,0.2773,0.2804,0.2795,0.2807,0.2807,0.2814,0.2813,0.2845,0.2819,0.2819,0.2819,0.2819,0,0.264,0.2659,0.2667,0.268,0.27,0.2704,0.2724,0.2731,0.2741,0.2755,0.2755,0.2768,0.2774,0.2787,0.2791,0.281,0.2814,0.2817,0.2817,0.2817,0.2816,0.2822,0.2821,0.282,0.2819,0.2819,0.2819,0,0.2665,0.2671,0.2694,0.2707,0.2711,0.2725,0.2736,0.2748,0.2753,0.277,0.2774,0.2783,0.2798,0.2804,0.2823,0.2826,0.2847,0.2847,0.2843,0.2843,0.2854,0.2853,0.2891,0.2896,0.2867,0.2867,0.2867,0,0.2683,0.2697,0.2711,0.272,0.2728,0.2742,0.2752,0.2756,0.2766,0.278,0.279,0.2806,0.2818,0.2843,0.285,0.2864,0.2864,0.2876,0.2867,0.2865,0.2864,0.2863,0.2864,0.2878,0.2879,0.2879,0.2879,0,0.2715,0.2717,0.2731,0.2745,0.2756,0.2768,0.2779,0.2786,0.2792,0.2803,0.2818,0.2828,0.2847,0.2861,0.2875,0.2882,0.2881,0.2882,0.2885,0.2885,0.2882,0.2883,0.2848,0.2881,0.2881,0.2881,0.2881,0.2881,0.2737,0.2749,0.276,0.2775,0.2783,0.2793,0.2805,0.2811,0.2824,0.284,0.2841,0.2857,0.2868,0.2887,0.2894,0.2906,0.2903,0.2908,0.2909,0.2911,0.2911,0.288,0.2909,0.2909,0.2909,0.2909,0.2909,0,0.2769,0.2775,0.2789,0.2804,0.2815,0.2813,0.2824,0.2834,0.2848,0.2858,0.287,0.2887,0.2901,0.2909,0.2922,0.293,0.293,0.2934,0.2933,0.2935,0.2914,0.2909,0.2934,0.2934,0.2934,0.2934,0.2934,0.2934,0.2786,0.2806,0.2809,0.2831,0.2838,0.2854,0.2861,0.2869,0.2877,0.2896,0.2907,0.2912,0.2921,0.2935,0.2947,0.2949,0.2953,0.2957,0.2959,0.2939,0.2936,0.2934,0.293,0.2958,0.2958,0.2979,0.2979,0.2979]}]]